[[{"header":{"parameterUnit":"m.s-1","parameterCategory":1,"la1":30.2991,"la2":30.254,"lo1":-89.0895,"lo2":-89.0444,"dy":0.0017,"dx":0.0017,"nx":28,"ny":28,"refTime":"2025-03-19T21:00:00:Z","depth":0,"parameterNumber":2,"parameterNumberName":"U-component_of_WINDS"},"data":[0,0,0,0,0,0,0,0,0,0,0,0,0,0,0,0,0,0,0,0,0,0,0,0,0,0,0,0,0,0,0,0,0,0,0,0,0,0,0,0,0,0,0,0,0,0,0,0,0,0,0,0,0,0,0,0,0,0,-0.9699,-0.9699,0,-0.9735,-0.9736,-0.9736,-0.9638,-0.9635,-0.9631,-0.9629,-0.9669,-0.9673,-0.9677,0,0,0,0,0,0,0,0,0,0,0,0,0,-0.9546,-0.9549,-0.9699,-0.9699,-0.97,-0.9735,-0.9736,-0.9736,-0.9638,-0.9634,-0.9631,-0.9627,-0.9668,-0.9673,-0.9677,0,0,0,0,0,0,0,0,0,0,0,0,0,-0.9601,-0.9551,-0.9699,-0.9655,-0.9651,-0.9735,-0.9736,-0.9736,-0.9639,-0.9634,-0.963,-0.9625,-0.9666,-0.9672,-0.9678,-0.9807,0,0,-0.9696,-0.9699,0,0,0,0,0,0,0,0,-0.9598,-0.9606,-0.9661,-0.9658,-0.9654,-0.9677,-0.9696,-0.976,-0.964,-0.9644,-0.9628,-0.9623,-0.9676,-0.9681,-0.9698,-0.9808,-0.981,-0.9697,-0.97,-0.9703,-0.9704,0,0,0,0,0,0,0,-0.9594,-0.9604,-0.9713,-0.9662,-0.9658,-0.9634,-0.9637,-0.9708,-0.9685,-0.9643,-0.9636,-0.9642,-0.9673,-0.9692,-0.9698,-0.9811,-0.9696,-0.9702,-0.9705,-0.9708,-1.0027,-1.0032,0,0,0,0,0,0,-0.9596,-0.9602,-0.9712,-0.9714,-0.9614,-0.9641,-0.9643,-0.9675,-0.9684,-0.9681,-0.9645,-0.9637,-0.9684,-0.9691,-0.9699,-0.985,-0.9703,-0.9708,-0.9712,-1.0022,-1.0028,-1.0034,0,0,0,0,0,0,-0.9593,-0.9606,-0.9711,-0.9656,-0.9668,-0.9648,-0.9684,-0.9678,-0.9697,-0.9686,-0.9682,-0.9669,-0.9681,-0.9691,-0.978,-0.985,-0.9711,-0.9716,-1.0016,-1.0024,-1.0031,-1.0152,0,0,0,0,0,0,-0.9589,-0.9606,-0.9655,-0.9658,-0.9671,-0.9791,-0.9688,-0.9682,-0.9707,-0.9696,-0.9707,-0.9704,-0.9678,-0.9772,-0.9786,-0.9855,-0.9721,-1.001,-1.002,-1.0029,-1.0142,-1.0163,-1.0181,0,0,0,0,0,-0.9584,-0.9688,-0.9658,-0.9671,-0.9731,-0.9795,-0.9803,-0.977,-0.9713,-0.9762,-0.9754,-0.9704,-0.9839,-0.9782,-0.9797,-0.9869,-1.0006,-1.0017,-1.0028,-1.0133,-1.0159,-1.0181,0,0,0,0,0,0,-0.9696,-0.9688,-0.9654,-0.9763,-0.978,-0.9779,-0.9839,-0.9798,-0.9833,-0.9821,-0.9779,-0.9783,-0.988,-0.9883,-0.9819,-0.9993,-0.9913,-0.9927,-0.9988,-1.0012,-1.0031,-1.0029,-0.9726,0,0,0,0,0,-0.9733,-0.9785,-0.9776,-0.9873,-0.9883,-0.986,-0.9887,-0.9859,-0.9876,-0.9883,-0.9883,-0.9902,-0.9948,-0.998,-1.0022,-1.0141,-1.0142,-1.0198,-1.0218,-1.0233,-1.0247,-1.031,-1.0334,-1.007,-1.007,-1.007,0,0,-0.9811,-0.9813,-0.9849,-0.9895,-0.9905,-0.9961,-0.9867,-0.993,-0.9971,-0.9893,-0.9977,-0.9977,-0.9995,-1.01,-1.0146,-1.0106,-1.032,-1.0248,-1.0261,-1.0266,-1.0324,-1.0349,-1.0371,-1.0078,-1.0076,-1.0075,0,0,-0.9981,-0.9988,-1.0069,-1.008,-1.0096,-1.008,-1.0099,-1.0103,-1.01,-1.0183,-1.0125,-1.0173,-1.0254,-1.0269,-1.0288,-1.0461,-1.0416,-1.0475,-1.0578,-1.0639,-1.066,-1.0678,-1.074,-1.0762,-1.0489,-1.0489,-1.0489,0,-1.0076,-1.0157,-1.0116,-1.0182,-1.0204,-1.0134,-1.0216,-1.023,-1.0259,-1.0276,-1.023,-1.0329,-1.0336,-1.0443,-1.0485,-1.0502,-1.0523,-1.0475,-1.066,-1.0678,-1.0694,-1.0753,-1.0776,-1.0496,-1.0495,-1.0495,-1.0494,0,-1.0273,-1.0329,-1.0393,-1.0422,-1.045,-1.0524,-1.0495,-1.0529,-1.0498,-1.0486,-1.0571,-1.0577,-1.0619,-1.0641,-1.0613,-1.0744,-1.0718,-1.0667,-1.0585,-1.0727,-1.0781,-1.0804,-1.0507,-1.0504,-1.0502,-1.05,0,0,-1.0518,-1.0521,-1.0545,-1.0556,-1.0567,-1.0611,-1.0681,-1.072,-1.075,-1.0772,-1.083,-1.0898,-1.085,-1.0871,-1.0842,-1.0896,-1.1032,-1.0837,-1.0837,-1.0874,-1.1176,-1.1216,-1.1243,-1.1001,-1.1005,-1.1009,-1.1175,0,-1.0686,-1.0805,-1.077,-1.089,-1.0941,-1.0874,-1.0935,-1.0949,-1.0939,-1.0981,-1.097,-1.102,-1.0952,-1.0964,-1.1014,-1.1005,-1.1092,-1.0992,-1.1056,-1.1058,-1.1055,-1.1271,-1.1313,-1.147,-1.1196,-1.1199,-1.1202,0,-1.0899,-1.0928,-1.1053,-1.1053,-1.1073,-1.1129,-1.1161,-1.1202,-1.1215,-1.1204,-1.1226,-1.1186,-1.1255,-1.1172,-1.1265,-1.1198,-1.1221,-1.1221,-1.1226,-1.1232,-1.114,-1.1284,-1.1519,-1.1543,-1.1235,-1.1232,-1.123,0,-1.1066,-1.1135,-1.1219,-1.123,-1.1233,-1.1274,-1.1277,-1.1285,-1.131,-1.1338,-1.1354,-1.139,-1.1411,-1.1439,-1.141,-1.1352,-1.1508,-1.1423,-1.1502,-1.1503,-1.1539,-1.1538,-1.1783,-1.1553,-1.1552,-1.1552,-1.1551,0,-1.1258,-1.1338,-1.1293,-1.1345,-1.1431,-1.1389,-1.1476,-1.1471,-1.1479,-1.1528,-1.1472,-1.152,-1.1478,-1.1522,-1.1499,-1.158,-1.159,-1.1583,-1.1576,-1.1589,-1.159,-1.1605,-1.1593,-1.1558,-1.1557,-1.1555,-1.1554,0,-1.146,-1.1434,-1.152,-1.1514,-1.1515,-1.1579,-1.1574,-1.1622,-1.1606,-1.1669,-1.1682,-1.1659,-1.1707,-1.168,-1.173,-1.1715,-1.182,-1.1798,-1.1816,-1.181,-1.1891,-1.1884,-1.2156,-1.2189,-1.1936,-1.1939,-1.1941,0,-1.1585,-1.1644,-1.1644,-1.1673,-1.1679,-1.1726,-1.175,-1.171,-1.1738,-1.1756,-1.1802,-1.1845,-1.1878,-1.1958,-1.1946,-1.1984,-1.1963,-1.2055,-1.1968,-1.1978,-1.1965,-1.1962,-1.1967,-1.2074,-1.2077,-1.2079,-1.2081,0,-1.181,-1.1794,-1.1831,-1.1863,-1.1894,-1.1918,-1.1937,-1.1963,-1.1923,-1.1957,-1.2005,-1.203,-1.208,-1.2124,-1.2156,-1.2159,-1.2114,-1.2108,-1.2128,-1.2142,-1.215,-1.2147,-1.1864,-1.2102,-1.21,-1.2099,-1.2098,-1.2097,-1.1978,-1.2027,-1.2034,-1.2077,-1.2086,-1.2105,-1.2149,-1.2138,-1.2177,-1.2214,-1.2187,-1.2244,-1.2254,-1.2291,-1.23,-1.2344,-1.2307,-1.2337,-1.2344,-1.2352,-1.2363,-1.2142,-1.235,-1.2349,-1.2348,-1.2348,-1.2347,0,-1.22,-1.2201,-1.224,-1.2268,-1.2302,-1.2253,-1.2272,-1.2303,-1.2354,-1.2366,-1.2398,-1.2453,-1.2494,-1.2484,-1.2521,-1.2558,-1.2538,-1.2569,-1.2567,-1.2568,-1.2394,-1.2373,-1.2585,-1.2585,-1.2585,-1.2585,-1.2585,-1.2585,-1.232,-1.24,-1.2384,-1.2467,-1.2467,-1.2521,-1.2536,-1.2552,-1.2562,-1.2625,-1.2658,-1.2651,-1.2654,-1.269,-1.2726,-1.2722,-1.2738,-1.2777,-1.2766,-1.2604,-1.2581,-1.2558,-1.2538,-1.2781,-1.2781,-1.2936,-1.2938,-1.2939]},{"header":{"parameterUnit":"m.s-1","parameterCategory":1,"la1":30.2991,"la2":30.254,"lo1":-89.0895,"lo2":-89.0444,"dy":0.0017,"dx":0.0017,"nx":28,"ny":28,"refTime":"2025-03-19T21:00:00:Z","depth":0,"parameterNumber":3,"parameterNumberName":"V-component_of_WINDS"},"data":[0,0,0,0,0,0,0,0,0,0,0,0,0,0,0,0,0,0,0,0,0,0,0,0,0,0,0,0,0,0,0,0,0,0,0,0,0,0,0,0,0,0,0,0,0,0,0,0,0,0,0,0,0,0,0,0,0,0,-3.8626,-3.8627,0,-3.8751,-3.8753,-3.8754,-3.871,-3.8708,-3.8705,-3.8702,-3.8829,-3.8835,-3.8841,0,0,0,0,0,0,0,0,0,0,0,0,0,-3.8346,-3.8351,-3.8626,-3.8628,-3.8629,-3.8751,-3.8753,-3.8755,-3.8711,-3.8707,-3.8704,-3.8701,-3.8827,-3.8834,-3.8841,0,0,0,0,0,0,0,0,0,0,0,0,0,-3.8469,-3.8353,-3.8626,-3.8622,-3.8623,-3.8751,-3.8753,-3.8755,-3.8712,-3.8707,-3.8703,-3.8699,-3.8825,-3.8833,-3.8842,-3.898,0,0,-3.8869,-3.8873,0,0,0,0,0,0,0,0,-3.8462,-3.8479,-3.8621,-3.8623,-3.8624,-3.8711,-3.87,-3.8831,-3.8713,-3.8678,-3.8702,-3.8697,-3.8793,-3.8804,-3.8837,-3.8986,-3.8992,-3.887,-3.8876,-3.8879,-3.8882,0,0,0,0,0,0,0,-3.8454,-3.8474,-3.8676,-3.8623,-3.8625,-3.8613,-3.8626,-3.8725,-3.8757,-3.8681,-3.8678,-3.8693,-3.8793,-3.8828,-3.8839,-3.8994,-3.887,-3.8878,-3.8883,-3.8887,-3.9261,-3.9265,0,0,0,0,0,0,-3.8445,-3.8467,-3.8672,-3.8679,-3.8531,-3.8622,-3.8636,-3.8687,-3.8756,-3.8762,-3.8697,-3.8691,-3.8815,-3.8829,-3.8844,-3.9009,-3.8879,-3.8888,-3.8893,-3.9256,-3.9262,-3.9267,0,0,0,0,0,0,-3.8439,-3.8463,-3.8666,-3.8572,-3.8597,-3.8631,-3.8689,-3.8692,-3.8727,-3.8768,-3.8773,-3.8727,-3.8812,-3.8831,-3.8946,-3.9012,-3.8892,-3.89,-3.9251,-3.9258,-3.9264,-3.9341,0,0,0,0,0,0,-3.8431,-3.8462,-3.8515,-3.8574,-3.8603,-3.8768,-3.8693,-3.8697,-3.8743,-3.8736,-3.8798,-3.8804,-3.881,-3.8933,-3.8955,-3.9023,-3.8907,-3.9245,-3.9254,-3.9262,-3.9333,-3.9349,-3.9364,0,0,0,0,0,-3.8421,-3.8532,-3.8518,-3.8543,-3.8671,-3.8772,-3.8788,-3.8794,-3.8749,-3.8802,-3.8828,-3.8802,-3.9002,-3.8945,-3.897,-3.9041,-3.9241,-3.9251,-3.9261,-3.9325,-3.9346,-3.9364,0,0,0,0,0,0,-3.8481,-3.854,-3.8525,-3.8659,-3.8711,-3.8765,-3.8833,-3.8816,-3.8882,-3.8873,-3.8876,-3.889,-3.9008,-3.9036,-3.8972,-3.9177,-3.9114,-3.913,-3.9155,-3.9175,-3.919,-3.9181,-3.8914,0,0,0,0,0,-3.8509,-3.8588,-3.8635,-3.8748,-3.8775,-3.8799,-3.8844,-3.8843,-3.8897,-3.8919,-3.8953,-3.9006,-3.908,-3.9129,-3.92,-3.9336,-3.9348,-3.9397,-3.9413,-3.9425,-3.9439,-3.9511,-3.9533,-3.93,-3.93,-3.93,0,0,-3.8569,-3.8611,-3.8661,-3.8761,-3.8801,-3.8881,-3.8818,-3.8906,-3.8965,-3.8932,-3.9043,-3.907,-3.9128,-3.9254,-3.9312,-3.9281,-3.9505,-3.9438,-3.9448,-3.9455,-3.9524,-3.9546,-3.9565,-3.9307,-3.9306,-3.9305,0,0,-3.8719,-3.876,-3.8857,-3.8899,-3.896,-3.8976,-3.8999,-3.9055,-3.9072,-3.9183,-3.916,-3.9229,-3.9358,-3.94,-3.9438,-3.9602,-3.958,-3.9625,-3.9707,-3.9777,-3.9795,-3.9812,-3.9868,-3.9889,-3.9638,-3.9638,-3.9638,0,-3.8786,-3.8906,-3.891,-3.8999,-3.9043,-3.9017,-3.9115,-3.9154,-3.9236,-3.9266,-3.9231,-3.9391,-3.9429,-3.9563,-3.9603,-3.9635,-3.9661,-3.9618,-3.9793,-3.9809,-3.9824,-3.9878,-3.99,-3.9643,-3.9643,-3.9642,-3.9642,0,-3.8984,-3.9067,-3.9139,-3.9218,-3.927,-3.9363,-3.938,-3.9432,-3.9426,-3.9445,-3.9557,-3.9601,-3.968,-3.9712,-3.9707,-3.9845,-3.9824,-3.9791,-3.9728,-3.9851,-3.9902,-3.9923,-3.965,-3.9648,-3.9647,-3.9646,0,0,-3.9176,-3.9254,-3.928,-3.9315,-3.938,-3.9444,-3.9536,-3.9612,-3.9656,-3.9713,-3.9788,-3.9897,-3.9866,-3.9909,-3.9909,-3.9971,-4.0096,-3.993,-3.9931,-3.9958,-4.0248,-4.0272,-4.0296,-4.0082,-4.0086,-4.0089,-4.0243,0,-3.933,-3.9491,-3.9495,-3.9642,-3.9718,-3.9693,-3.9772,-3.982,-3.984,-3.9906,-3.9927,-4.0003,-3.9958,-3.9983,-4.0043,-4.0068,-4.0154,-4.0057,-4.0151,-4.0154,-4.0136,-4.0323,-4.0349,-4.0493,-4.0263,-4.0266,-4.0269,0,-3.9532,-3.9594,-3.9748,-3.98,-3.9833,-3.9904,-3.9973,-4.0038,-4.0091,-4.01,-4.0148,-4.0138,-4.023,-4.0164,-4.0289,-4.0223,-4.0261,-4.0279,-4.0284,-4.0293,-4.0218,-4.0336,-4.0539,-4.056,-4.03,-4.0298,-4.0296,0,-3.9654,-3.9777,-3.9884,-3.9915,-3.9979,-4.0029,-4.0058,-4.0107,-4.0152,-4.0213,-4.0242,-4.0312,-4.0351,-4.0405,-4.0414,-4.0365,-4.0539,-4.0474,-4.0548,-4.0548,-4.0585,-4.0583,-4.0796,-4.0612,-4.0612,-4.0611,-4.0611,0,-3.9825,-3.992,-3.994,-4.0006,-4.0111,-4.0115,-4.0218,-4.0243,-4.0287,-4.0356,-4.0339,-4.0404,-4.0413,-4.048,-4.0487,-4.0589,-4.0606,-4.0616,-4.0616,-4.0617,-4.0616,-4.0642,-4.0631,-4.0617,-4.0616,-4.0615,-4.0614,0,-3.998,-3.9998,-4.0113,-4.0164,-4.0179,-4.0254,-4.0296,-4.0359,-4.0376,-4.0464,-4.0484,-4.0511,-4.0589,-4.0603,-4.0695,-4.07,-4.0821,-4.0812,-4.0803,-4.0802,-4.0874,-4.0867,-4.1112,-4.1143,-4.0939,-4.0941,-4.0942,0,-4.0088,-4.0161,-4.0219,-4.0264,-4.0295,-4.0369,-4.0414,-4.0421,-4.0469,-4.0533,-4.0587,-4.0663,-4.0725,-4.085,-4.0877,-4.0946,-4.0938,-4.1019,-4.0949,-4.0946,-4.0938,-4.0933,-4.094,-4.1033,-4.1035,-4.1037,-4.1038,0,-4.0277,-4.0282,-4.0349,-4.0418,-4.0473,-4.0528,-4.058,-4.0618,-4.063,-4.0685,-4.0765,-4.0812,-4.0905,-4.098,-4.1049,-4.1078,-4.106,-4.106,-4.1081,-4.1082,-4.1073,-4.1077,-4.0839,-4.1054,-4.1053,-4.1052,-4.1051,-4.105,-4.0411,-4.0474,-4.0524,-4.0598,-4.0638,-4.0686,-4.0747,-4.0771,-4.0837,-4.0914,-4.0913,-4.1,-4.1048,-4.1139,-4.1172,-4.1239,-4.1213,-4.1243,-4.1251,-4.1258,-4.1264,-4.1063,-4.1252,-4.1251,-4.1251,-4.125,-4.125,0,-4.0599,-4.0629,-4.0697,-4.077,-4.0828,-4.0806,-4.0862,-4.0912,-4.0988,-4.1036,-4.1096,-4.1186,-4.1258,-4.129,-4.1361,-4.1408,-4.1402,-4.1427,-4.1423,-4.1429,-4.1284,-4.1259,-4.1431,-4.1431,-4.143,-4.143,-4.143,-4.143,-4.0703,-4.0806,-4.0816,-4.0939,-4.0968,-4.1053,-4.1087,-4.1131,-4.1168,-4.127,-4.133,-4.135,-4.139,-4.1464,-4.1528,-4.1536,-4.1562,-4.1591,-4.1594,-4.1458,-4.144,-4.1422,-4.1398,-4.1597,-4.1597,-4.1733,-4.1735,-4.1736]}]]